Marion, OH

2:31 AM EDT on September 20, 2019 (GMT -0400)
Marion Municipal

Weather History for KMNN - August, 2019

Change the Weather History Date:

Friday, August 23, 2019

  Actual Average (KDLZ) Record (KDLZ)
Temperature  
Mean Temperature 64 °F -  
Max Temperature 73 °F 80 °F 98 °F (1936)
Min Temperature 57 °F 57 °F 44 °F (1982)
Growing Degree Days 14 (Base 50)    
Moisture  
Dew Point 54 °F    
Average Humidity 72    
Maximum Humidity 90    
Minimum Humidity 48    
Precipitation  
Precipitation 0.00 in - - ()
Sea Level Pressure  
Sea Level Pressure 30.14 in    
Wind  
Wind Speed 7 mph (NE)    
Max Wind Speed 15 mph    
Max Gust Speed 22 mph    
Visibility 10 miles    
Events      
Averages and records for this station are not official NWS values.
T = Trace of Precipitation, MM = Missing Value Source: NWS Daily Summary

Daily Weather History Graph

Daily Weather History Graph

Search for Another Location

Airport or City:

Astronomy

Aug. 23, 2019 Rise Set
Actual Time 6:50 AM EDT 8:18 PM EDT
Civil Twilight 6:21 AM EDT 8:47 PM EDT
Nautical Twilight 5:47 AM EDT 9:21 PM EDT
Astronomical Twilight 5:10 AM EDT 9:58 PM EDT
Moon 12:07 AM EDT (8/23) 2:28 PM EDT (8/23)
Length of Visible Light 14h 25m
Length of Day
13h 28m
Waning Gibbous, 50% of the Moon is Illuminated
Aug 23
Waning Gibbous
Aug 30
New
Sep 5
First Quarter
Sep 14
Full
Sep 21
Last Quarter

Hourly Weather History & Observations

Time (EDT) Temp. Dew Point Humidity Pressure Visibility Wind Dir Wind Speed Gust Speed Precip Events Conditions
12:53 AM 63.0 °F 59.0 °F 87% 30.05 in 10.0 mi NE 5.8 mph - N/A   Clear
1:53 AM 62.1 °F 59.0 °F 90% 30.06 in 10.0 mi NE 3.5 mph - N/A   Scattered Clouds
2:53 AM 61.0 °F 57.9 °F 90% 30.07 in 10.0 mi Calm Calm - N/A   Clear
3:53 AM 60.1 °F 57.0 °F 90% 30.07 in 10.0 mi NNE 8.1 mph - N/A   Clear
4:53 AM 59.0 °F 55.9 °F 90% 30.08 in 10.0 mi NE 4.6 mph - N/A   Clear
5:53 AM 57.9 °F 55.0 °F 90% 30.09 in 10.0 mi NE 3.5 mph - N/A   Clear
6:53 AM 57.0 °F 54.0 °F 89% 30.11 in 10.0 mi NE 4.6 mph - N/A   Clear
7:53 AM 59.0 °F 55.9 °F 90% 30.13 in 10.0 mi NNE 3.5 mph - N/A   Clear
8:53 AM 63.0 °F 55.9 °F 78% 30.14 in 10.0 mi ENE 5.8 mph - N/A   Clear
9:53 AM 66.0 °F 57.0 °F 73% 30.15 in 10.0 mi NE 6.9 mph - N/A   Clear
10:53 AM 69.1 °F 55.0 °F 61% 30.15 in 10.0 mi NNE 13.8 mph - N/A   Clear
11:53 AM 71.1 °F 54.0 °F 55% 30.16 in 10.0 mi NE 12.7 mph - N/A   Clear
12:53 PM 72.0 °F 52.0 °F 49% 30.16 in 10.0 mi NE 8.1 mph 18.4 mph N/A   Mostly Cloudy
1:53 PM 70.0 °F 52.0 °F 53% 30.16 in 10.0 mi NE 12.7 mph - N/A   Overcast
2:53 PM 70.0 °F 52.0 °F 53% 30.17 in 10.0 mi NNE 12.7 mph - N/A   Mostly Cloudy
3:53 PM 71.1 °F 52.0 °F 51% 30.15 in 10.0 mi NNE 15.0 mph 21.9 mph N/A   Mostly Cloudy
4:53 PM 72.0 °F 51.1 °F 48% 30.15 in 10.0 mi NE 12.7 mph - N/A   Mostly Cloudy
5:53 PM 71.1 °F 53.1 °F 53% 30.14 in 10.0 mi NE 9.2 mph - N/A   Partly Cloudy
6:53 PM 70.0 °F 51.1 °F 51% 30.16 in 10.0 mi NE 12.7 mph - N/A   Clear
7:53 PM 66.0 °F 53.1 °F 63% 30.17 in 10.0 mi NE 8.1 mph - N/A   Clear
8:53 PM 63.0 °F 54.0 °F 72% 30.17 in 10.0 mi NNE 4.6 mph - N/A   Clear
9:53 PM 61.0 °F 54.0 °F 78% 30.19 in 10.0 mi NNE 5.8 mph - N/A   Clear
10:53 PM 59.0 °F 53.1 °F 81% 30.20 in 10.0 mi NNE 4.6 mph - N/A   Clear
11:53 PM 57.9 °F 53.1 °F 84% 30.21 in 10.0 mi NE 3.5 mph - N/A   Clear